This is the latest recevied weather packets stored in our database for station/object KI8L. If no packets are shown the sender has not sent any weather packets the latest 10 day(s).
| Time | Temp. | Humidity | Pressure | Rain* | Wind** | Luminosity | Snow |
|---|---|---|---|---|---|---|---|
| 1778079972 | 10.56° C | 79% | 1013.4 hPa | 0 mm | - | 320 W/m² | - |
| 1778079669 | 10.56° C | 78% | 1013.4 hPa | 0 mm | - | 318 W/m² | - |
| 1778079366 | 10.56° C | 77% | 1013.4 hPa | 0 mm | - | 340 W/m² | - |
| 1778079063 | 10.56° C | 76% | 1013.1 hPa | 0 mm | - | 373 W/m² | - |
| 1778078759 | 10.56° C | 78% | 1013 hPa | 0 mm | - | 389 W/m² | - |
| 1778078456 | 10° C | 79% | 1012.9 hPa | 0 mm | - | 379 W/m² | - |
| 1778078155 | 10° C | 80% | 1013.1 hPa | 0 mm | - | 303 W/m² | - |
| 1778077853 | 10° C | 81% | 1013 hPa | 0 mm | - | 382 W/m² | - |
| 1778077550 | 9.44° C | 82% | 1013.2 hPa | 0 mm | - | 262 W/m² | - |
| 1778077248 | 9.44° C | 82% | 1013.2 hPa | 0 mm | - | 228 W/m² | - |
| 1778076945 | 9.44° C | 82% | 1013.1 hPa | 0 mm | - | 246 W/m² | - |
| 1778076644 | 9.44° C | 84% | 1013 hPa | 0 mm | - | 303 W/m² | - |
| 1778076341 | 9.44° C | 83% | 1013 hPa | 0 mm | - | 588 W/m² | - |
| 1778076038 | 8.89° C | 89% | 1012.7 hPa | 0 mm | - | 248 W/m² | - |
| 1778075735 | 8.33° C | 88% | 1013 hPa | 0 mm | - | 211 W/m² | - |
| 1778075431 | 8.33° C | 89% | 1013.4 hPa | 0 mm | - | 178 W/m² | - |
| 1778075127 | 8.33° C | 90% | 1013.2 hPa | 0 mm | - | 171 W/m² | - |
| 1778074824 | 8.33° C | 92% | 1013.1 hPa | 0 mm | - | 177 W/m² | - |
| 1778074521 | 7.78° C | 94% | 1013.1 hPa | 0 mm | - | 149 W/m² | - |
| 1778074218 | 7.78° C | 94% | 1013.1 hPa | 0 mm | - | 116 W/m² | - |
| 1778073915 | 7.78° C | 94% | 1013 hPa | 0 mm | - | 97 W/m² | - |
| 1778073612 | 7.78° C | 96% | 1012.9 hPa | 0 mm | - | 107 W/m² | - |
| 1778073309 | 7.22° C | 97% | 1012.7 hPa | 0 mm | - | 105 W/m² | - |
| 1778073006 | 7.22° C | 97% | 1012.6 hPa | 0 mm | - | 99 W/m² | - |
| 1778072702 | 7.22° C | 98% | 1012.6 hPa | 0 mm | - | 79 W/m² | - |
* Rain latest hour (hover to see other rain measurements)
** Current wind speed in m/s (hover to see current wind gust speed)